Location: *
(46.4000°N, 12.6667°E)
Time: 04:50:20
(UTC+00:00)

Envisat - Pass Details

Date: 07 December 2021
Orbit: 764 x 766 km, 98.2° (Epoch: 16 January)

Event Time Altitude Azimuth Distance (km) Brightness Sun altitude
Rises 03:39:45 0° 19° (NNE) 3,244 6.4 -29.9°
Reaches altitude 10° 03:42:12 10° 27° (NNE) 2,312 5.7 -29.5°
Maximum altitude 03:47:01 42° 98° (E) 1,090 4.2 -28.7°
Drops below altitude 10° 03:51:48 10° 168° (SSE) 2,295 5.6 -27.9°
Sets 03:54:13 0° 176° (S) 3,216 6.3 -27.4°
